Location: Camps Bay
(33.9517°S, 18.3844°E)
Time: 10:00:00
(UTC+00:00)

Cosmos 2369 - Pass Details

Date: 18 January 2020
Orbit: 839 x 856 km, 71.0° (Epoch: 18 February)

Event Time Altitude Azimuth Distance (km) Brightness Sun altitude
Rises 02:44:18 0° 213° (SSW) 3,427 6.9 -13.1°
Reaches altitude 10° 02:46:59 10° 222° (SW) 2,487 6.1 -12.6°
Maximum altitude 02:51:58 32° 283° (WNW) 1,420 4.4 -11.8°
Drops below altitude 10° 02:56:57 10° 344° (NNW) 2,469 5.7 -11.0°
Sets 02:59:37 0° 354° (N) 3,399 6.5 -10.5°
